This is the latest recevied weather packets stored in our database for station/object KD9ZDW. If no packets are shown the sender has not sent any weather packets the latest 10 day(s).
| Time | Temp. | Humidity | Pressure | Rain* | Wind** | Luminosity | Snow |
|---|---|---|---|---|---|---|---|
| 1777980650 | 13.33° C | 87% | 1008.1 hPa | 0 mm | - | 34 W/m² | - |
| 1777980347 | 13.33° C | 87% | 1008 hPa | 0 mm | - | 11 W/m² | - |
| 1777980045 | 13.33° C | 88% | 1007.9 hPa | 0 mm | - | 15 W/m² | - |
| 1777979744 | 13.33° C | 88% | 1007.8 hPa | 0 mm | - | 15 W/m² | - |
| 1777979440 | 13.33° C | 88% | 1007.8 hPa | 0 mm | - | 9 W/m² | - |
| 1777979137 | 13.33° C | 88% | 1007.7 hPa | 0 mm | - | 9 W/m² | - |
| 1777978833 | 12.78° C | 88% | 1007.7 hPa | 0 mm | - | 5 W/m² | - |
| 1777978530 | 12.78° C | 89% | 1007.5 hPa | 0 mm | - | 4 W/m² | - |
| 1777978226 | 12.78° C | 89% | 1007.4 hPa | 0 mm | - | 3 W/m² | - |
| 1777977923 | 12.78° C | 89% | 1007.4 hPa | 0 mm | - | 3 W/m² | - |
| 1777977621 | 12.78° C | 88% | 1007.2 hPa | 0 mm | - | 3 W/m² | - |
| 1777977317 | 12.78° C | 88% | 1007 hPa | 0 mm | - | 2 W/m² | - |
| 1777977015 | 12.78° C | 88% | 1007 hPa | 0 mm | - | 1 W/m² | - |
| 1777976712 | 12.78° C | 88% | 1006.6 hPa | 0 mm | - | 0 W/m² | - |
| 1777976409 | 12.78° C | 88% | 1006.6 hPa | 0 mm | - | 0 W/m² | - |
| 1777976107 | 12.78° C | 88% | 1006.5 hPa | 0 mm | - | 0 W/m² | - |
| 1777975804 | 12.78° C | 88% | 1006.2 hPa | 0 mm | - | 0 W/m² | - |
| 1777975501 | 12.78° C | 88% | 1006.2 hPa | 0 mm | - | 0 W/m² | - |
| 1777975197 | 12.78° C | 88% | 1006.3 hPa | 0 mm | - | 0 W/m² | - |
| 1777974893 | 12.78° C | 88% | 1006.2 hPa | 0 mm | - | 0 W/m² | - |
| 1777974590 | 12.78° C | 88% | 1006.3 hPa | 0 mm | - | 0 W/m² | - |
| 1777974287 | 12.78° C | 89% | 1006.2 hPa | 0 mm | - | 0 W/m² | - |
| 1777973983 | 12.78° C | 89% | 1006.2 hPa | 0 mm | - | 0 W/m² | - |
| 1777973679 | 12.78° C | 89% | 1005.9 hPa | 0 mm | - | 0 W/m² | - |
| 1777973377 | 12.78° C | 90% | 1006.1 hPa | 0 mm | - | 0 W/m² | - |
* Rain latest hour (hover to see other rain measurements)
** Current wind speed in m/s (hover to see current wind gust speed)